Notices

What's New in latest Release from April 7th, 2021:

- Updated Glossary, including Speed of Maximum Gust, and Total Hourly Precipitation

- Updated national and regional climate services offices contacts and prices information

- Addition of station inventory lists for 1981-2010, 1971-2000, and 1961-1990 Normals.

If you haven't already, please take our survey and provide feedback about our website: https://eccc.sondage-survey.ca/f/LanguageSelection.aspx?s=442ca660-fcf1-47c0-95a9-59707d6fd709

Hourly Data Report for April 06, 2020

MIRAMICHI RCS
NEW BRUNSWICK
Current Station Operator: ECCC - MSC

47°00'34.000" N
65°27'54.000" W
33.00 m
8100989
71744
ACQ

Download Data

Hourly Data (April 2020)
Hourly Data Report for April 6, 2020
TIME
LST
Temp Definition
°C
Dew Point Definition
°C
Rel Hum Definition
%
Precip. Amount Definition
mm

Wind Dir Definition
10's deg

Wind Spd Definition
km/h
Visibility Definition
km
Stn Press Definition
kPa
Hmdx Definition


Wind Chill Definition


Weather Definition


00:00 4.3 -0.8 70 LegendMM 23 16   100.39     LegendNANA
01:00 3.2 0.9 85 LegendMM 21 18   100.32     LegendNANA
02:00 2.9 1.6 91 LegendMM 22 18   100.24     LegendNANA
03:00 2.8 1.8 93 LegendMM 23 17   100.18     LegendNANA
04:00 2.9 2.1 94 LegendMM 25 14   100.16     LegendNANA
05:00 2.7 1.7 94 LegendMM 27 8   100.17     LegendNANA
06:00 2.7 -1.5 74 LegendMM 30 13   100.23     LegendNANA
07:00 2.8 -1.9 71 LegendMM 27 12   100.27     LegendNANA
08:00 3.2 -5.4 53 LegendMM 30 19   100.26     LegendNANA
09:00 4.1 -5.1 51 LegendMM 28 22   100.18     LegendNANA
10:00 4.7 -5.9 46 LegendMM 28 25   100.14     LegendNANA
11:00 5.4 -7.9 38 LegendMM 27 30   100.04     LegendNANA
12:00 5.1 -7.6 39 LegendMM 28 34   100.04     LegendNANA
13:00 4.6 -8.1 39 LegendMM 30 33   100.00     LegendNANA
14:00 5.3 -8.7 35 LegendMM 29 29   99.96     LegendNANA
15:00 5.0 -8.5 37 LegendMM 30 25   99.95     LegendNANA
16:00 4.7 -8.4 38 LegendMM 29 27   99.93     LegendNANA
17:00 4.4 -8.4 39 LegendMM 30 32   99.95     LegendNANA
18:00 3.9 -8.7 39 LegendMM 30 30   100.01     LegendNANA
19:00 2.8 -8.1 44 LegendMM 31 17   100.09     LegendNANA
20:00 1.8 -8.4 47 LegendMM 30 11   100.17     LegendNANA
21:00 1.0 -9.0 47 LegendMM 26 11   100.22     LegendNANA
22:00 0.3 -8.7 51 LegendMM 28 15   100.20     LegendNANA
23:00 -0.7 -8.9 54 LegendMM 28 10   100.21   -4 LegendNANA

Notes on Data Quality.

Legend

  • E = Estimated
  • M = Missing
  • NA = Not Available*
  • [empty] = Indicates an unobserved value
Date modified: